Time,TemperatureF,DewpointF,PressureIn,WindDirection,WindDirectionDegrees,WindSpeedMPH,WindSpeedGustMPH,Humidity,HourlyPrecipIn,Conditions,Clouds,dailyrainin,SoftwareType,DateUTC
2013-10-11 00:00:00,57.3,51.5,29.94,SE,143,2.0,8.0,81,0.00,,,0.00,Wunderground v.1.15,2013-10-11 05:00:00,
2013-10-11 00:06:00,57.3,51.5,29.94,SE,126,2.0,8.0,81,0.00,,,0.00,Wunderground v.1.15,2013-10-11 05:06:00,
2013-10-11 00:12:00,57.2,51.4,29.93,SE,131,2.0,8.0,81,0.00,,,0.00,Wunderground v.1.15,2013-10-11 05:12:00,
2013-10-11 00:17:00,57.0,51.2,29.93,SE,132,2.0,8.0,81,0.00,,,0.00,Wunderground v.1.15,2013-10-11 05:17:00,
2013-10-11 00:24:00,56.8,51.4,29.93,SE,131,1.0,8.0,82,0.00,,,0.00,Wunderground v.1.15,2013-10-11 05:24:00,
2013-10-11 00:30:00,56.6,51.2,29.93,SE,126,1.0,8.0,82,0.00,,,0.00,Wunderground v.1.15,2013-10-11 05:30:00,
2013-10-11 00:36:00,56.3,51.2,29.93,SE,125,1.0,8.0,83,0.00,,,0.00,Wunderground v.1.15,2013-10-11 05:36:00,
2013-10-11 00:42:00,56.2,51.1,29.92,ESE,122,1.0,8.0,83,0.00,,,0.00,Wunderground v.1.15,2013-10-11 05:42:00,
2013-10-11 00:48:00,56.1,51.0,29.92,SE,128,1.0,8.0,83,0.00,,,0.00,Wunderground v.1.15,2013-10-11 05:48:00,
2013-10-11 00:54:00,56.2,51.4,29.93,SE,131,1.0,8.0,84,0.00,,,0.00,Wunderground v.1.15,2013-10-11 05:54:00,
2013-10-11 00:59:00,56.2,51.4,29.93,SE,126,1.0,1.0,84,0.00,,,0.00,Wunderground v.1.15,2013-10-11 05:59:00,
2013-10-11 01:06:00,56.1,51.3,29.93,SE,130,1.0,8.0,84,0.00,,,0.00,Wunderground v.1.15,2013-10-11 06:06:00,
2013-10-11 01:11:00,56.1,51.3,29.93,ESE,123,1.0,8.0,84,0.00,,,0.00,Wunderground v.1.15,2013-10-11 06:11:00,
2013-10-11 01:18:00,56.1,51.3,29.93,SE,132,1.0,8.0,84,0.00,,,0.00,Wunderground v.1.15,2013-10-11 06:18:00,
2013-10-11 01:24:00,56.1,51.3,29.93,SE,134,1.0,8.0,84,0.00,,,0.00,Wunderground v.1.15,2013-10-11 06:24:00,
2013-10-11 01:30:00,56.1,51.3,29.94,SE,133,1.0,8.0,84,0.00,,,0.00,Wunderground v.1.15,2013-10-11 06:30:00,
2013-10-11 01:36:00,56.0,51.2,29.94,SE,136,1.0,8.0,84,0.00,,,0.00,Wunderground v.1.15,2013-10-11 06:36:00,
2013-10-11 01:41:00,56.1,51.7,29.94,ESE,122,1.0,8.0,85,0.00,,,0.00,Wunderground v.1.15,2013-10-11 06:41:00,
2013-10-11 01:48:00,56.3,51.5,29.94,ESE,118,1.0,8.0,84,0.00,,,0.00,Wunderground v.1.15,2013-10-11 06:48:00,
2013-10-11 01:54:00,56.4,51.6,29.94,SE,130,2.0,8.0,84,0.00,,,0.00,Wunderground v.1.15,2013-10-11 06:54:00,
2013-10-11 02:00:00,56.5,51.7,29.94,SE,127,2.0,2.0,84,0.00,,,0.00,Wunderground v.1.15,2013-10-11 07:00:00,
2013-10-11 02:06:00,56.4,51.6,29.94,ESE,121,2.0,8.0,84,0.00,,,0.00,Wunderground v.1.15,2013-10-11 07:06:00,
2013-10-11 02:12:00,56.3,51.8,29.94,SE,126,2.0,8.0,85,0.00,,,0.00,Wunderground v.1.15,2013-10-11 07:12:00,
2013-10-11 02:18:00,56.2,51.7,29.94,SE,129,2.0,8.0,85,0.00,,,0.00,Wunderground v.1.15,2013-10-11 07:18:00,
2013-10-11 02:23:00,56.2,51.7,29.94,SE,130,2.0,8.0,85,0.00,,,0.00,Wunderground v.1.15,2013-10-11 07:23:00,
2013-10-11 02:30:00,56.2,51.7,29.94,SE,131,2.0,8.0,85,0.00,,,0.00,Wunderground v.1.15,2013-10-11 07:30:00,
2013-10-11 02:35:00,56.1,51.7,29.94,SE,137,3.0,8.0,85,0.00,,,0.00,Wunderground v.1.15,2013-10-11 07:35:00,
2013-10-11 02:42:00,56.0,51.6,29.94,ESE,121,3.0,8.0,85,0.00,,,0.00,Wunderground v.1.15,2013-10-11 07:42:00,
2013-10-11 02:48:00,55.8,51.7,29.93,SE,133,3.0,8.0,86,0.00,,,0.00,Wunderground v.1.15,2013-10-11 07:48:00,
2013-10-11 02:54:00,55.7,51.6,29.93,SE,130,2.0,8.0,86,0.00,,,0.00,Wunderground v.1.15,2013-10-11 07:54:00,
2013-10-11 03:00:00,55.7,51.6,29.94,SE,131,3.0,8.0,86,0.00,,,0.00,Wunderground v.1.15,2013-10-11 08:00:00,
2013-10-11 03:05:00,55.5,51.4,29.94,East,97,2.0,8.0,86,0.00,,,0.00,Wunderground v.1.15,2013-10-11 08:05:00,
2013-10-11 03:12:00,55.4,51.6,29.94,ESE,110,2.0,8.0,87,0.00,,,0.00,Wunderground v.1.15,2013-10-11 08:12:00,
2013-10-11 03:18:00,55.3,51.5,29.94,ESE,119,3.0,8.0,87,0.00,,,0.00,Wunderground v.1.15,2013-10-11 08:18:00,
2013-10-11 03:24:00,55.1,51.6,29.93,ESE,118,2.0,8.0,88,0.00,,,0.00,Wunderground v.1.15,2013-10-11 08:24:00,
2013-10-11 03:30:00,55.0,51.5,29.93,ESE,121,2.0,8.0,88,0.00,,,0.00,Wunderground v.1.15,2013-10-11 08:30:00,
2013-10-11 03:35:00,54.7,51.2,29.93,ESE,121,2.0,8.0,88,0.00,,,0.00,Wunderground v.1.15,2013-10-11 08:35:00,
2013-10-11 03:42:00,54.6,51.4,29.93,SE,129,2.0,8.0,89,0.00,,,0.00,Wunderground v.1.15,2013-10-11 08:42:00,
2013-10-11 03:47:00,54.6,51.4,29.92,East,101,2.0,8.0,89,0.00,,,0.00,Wunderground v.1.15,2013-10-11 08:47:00,
2013-10-11 03:54:00,54.5,51.3,29.92,ESE,122,2.0,8.0,89,0.00,,,0.00,Wunderground v.1.15,2013-10-11 08:54:00,
2013-10-11 03:59:00,54.6,51.4,29.92,SE,129,2.0,8.0,89,0.00,,,0.00,Wunderground v.1.15,2013-10-11 08:59:00,
2013-10-11 04:06:00,54.7,51.5,29.92,SE,134,2.0,8.0,89,0.00,,,0.00,Wunderground v.1.15,2013-10-11 09:06:00,
2013-10-11 04:12:00,54.9,51.7,29.92,SE,131,2.0,8.0,89,0.00,,,0.00,Wunderground v.1.15,2013-10-11 09:12:00,
2013-10-11 04:18:00,55.1,51.9,29.92,SE,131,2.0,8.0,89,0.00,,,0.00,Wunderground v.1.15,2013-10-11 09:18:00,
2013-10-11 04:24:00,55.3,52.1,29.92,ESE,115,2.0,8.0,89,0.00,,,0.00,Wunderground v.1.15,2013-10-11 09:24:00,
2013-10-11 04:29:00,55.4,52.2,29.92,SE,125,3.0,8.0,89,0.00,,,0.00,Wunderground v.1.15,2013-10-11 09:29:00,
2013-10-11 04:36:00,55.6,52.4,29.92,SE,131,3.0,8.0,89,0.00,,,0.00,Wunderground v.1.15,2013-10-11 09:36:00,
2013-10-11 04:42:00,55.7,52.2,29.92,SE,124,3.0,8.0,88,0.00,,,0.00,Wunderground v.1.15,2013-10-11 09:42:00,
2013-10-11 04:48:00,55.9,52.4,29.92,SE,128,3.0,8.0,88,0.00,,,0.00,Wunderground v.1.15,2013-10-11 09:48:00,
2013-10-11 04:54:00,55.8,52.3,29.92,SE,125,3.0,8.0,88,0.00,,,0.00,Wunderground v.1.15,2013-10-11 09:54:00,
2013-10-11 04:59:00,55.8,52.3,29.92,SE,145,4.0,4.0,88,0.00,,,0.00,Wunderground v.1.15,2013-10-11 09:59:00,
2013-10-11 05:06:00,55.7,52.2,29.92,SE,138,4.0,8.0,88,0.00,,,0.00,Wunderground v.1.15,2013-10-11 10:06:00,
2013-10-11 05:11:00,55.6,52.1,29.92,SE,137,3.0,8.0,88,0.00,,,0.00,Wunderground v.1.15,2013-10-11 10:11:00,
2013-10-11 05:18:00,55.4,52.2,29.92,SE,129,3.0,8.0,89,0.00,,,0.00,Wunderground v.1.15,2013-10-11 10:18:00,
2013-10-11 05:23:00,55.4,52.2,29.92,SE,131,4.0,8.0,89,0.00,,,0.00,Wunderground v.1.15,2013-10-11 10:23:00,
2013-10-11 05:32:00,55.2,52.0,29.92,SE,132,3.0,8.0,89,0.00,,,0.00,Wunderground v.1.15,2013-10-11 10:32:00,
2013-10-11 05:37:00,55.1,51.9,29.92,ESE,113,3.0,8.0,89,0.00,,,0.00,Wunderground v.1.15,2013-10-11 10:37:00,
2013-10-11 05:44:00,55.0,51.8,29.92,SE,144,3.0,8.0,89,0.00,,,0.00,Wunderground v.1.15,2013-10-11 10:44:00,
2013-10-11 05:50:00,54.9,52.0,29.93,SE,134,3.0,8.0,90,0.00,,,0.00,Wunderground v.1.15,2013-10-11 10:50:00,
2013-10-11 05:56:00,54.8,51.9,29.92,ESE,102,3.0,8.0,90,0.00,,,0.00,Wunderground v.1.15,2013-10-11 10:56:00,
2013-10-11 06:02:00,54.7,51.8,29.93,SE,130,3.0,8.0,90,0.00,,,0.00,Wunderground v.1.15,2013-10-11 11:02:00,
2013-10-11 06:07:00,54.7,51.8,29.93,SE,128,3.0,8.0,90,0.00,,,0.00,Wunderground v.1.15,2013-10-11 11:07:00,
2013-10-11 06:14:00,54.5,51.6,29.93,SE,128,3.0,8.0,90,0.00,,,0.00,Wunderground v.1.15,2013-10-11 11:14:00,
2013-10-11 06:20:00,54.4,51.5,29.93,ESE,121,3.0,3.0,90,0.00,,,0.00,Wunderground v.1.15,2013-10-11 11:20:00,
2013-10-11 06:26:00,54.3,51.7,29.92,SE,126,3.0,8.0,91,0.00,,,0.00,Wunderground v.1.15,2013-10-11 11:26:00,
2013-10-11 06:32:00,54.1,51.5,29.92,SE,128,3.0,8.0,91,0.00,,,0.00,Wunderground v.1.15,2013-10-11 11:32:00,
2013-10-11 06:37:00,54.0,51.4,29.92,SE,140,3.0,8.0,91,0.00,,,0.00,Wunderground v.1.15,2013-10-11 11:37:00,
2013-10-11 06:44:00,54.1,51.5,29.92,ESE,113,3.0,8.0,91,0.00,,,0.00,Wunderground v.1.15,2013-10-11 11:44:00,
2013-10-11 06:49:00,54.0,51.7,29.92,SE,130,3.0,8.0,92,0.00,,,0.00,Wunderground v.1.15,2013-10-11 11:49:00,
2013-10-11 06:56:00,54.0,51.7,29.92,SE,127,3.0,8.0,92,0.00,,,0.00,Wunderground v.1.15,2013-10-11 11:56:00,
2013-10-11 07:01:00,54.0,51.7,29.93,SE,133,3.0,8.0,92,0.00,,,0.00,Wunderground v.1.15,2013-10-11 12:01:00,
2013-10-11 07:08:00,54.0,51.7,29.92,SE,132,3.0,8.0,92,0.00,,,0.00,Wunderground v.1.15,2013-10-11 12:08:00,
2013-10-11 07:14:00,54.1,51.8,29.92,SE,131,3.0,8.0,92,0.00,,,0.00,Wunderground v.1.15,2013-10-11 12:14:00,
2013-10-11 07:20:00,54.1,51.8,29.92,SE,131,4.0,8.0,92,0.00,,,0.00,Wunderground v.1.15,2013-10-11 12:20:00,
2013-10-11 07:26:00,54.1,51.8,29.92,SE,130,4.0,8.0,92,0.00,,,0.00,Wunderground v.1.15,2013-10-11 12:26:00,
2013-10-11 07:31:00,54.1,51.8,29.92,SE,131,4.0,8.0,92,0.00,,,0.00,Wunderground v.1.15,2013-10-11 12:31:00,
2013-10-11 07:38:00,54.1,51.8,29.92,SE,124,4.0,8.0,92,0.00,,,0.00,Wunderground v.1.15,2013-10-11 12:38:00,
2013-10-11 07:44:00,54.2,51.9,29.92,SE,128,4.0,8.0,92,0.00,,,0.00,Wunderground v.1.15,2013-10-11 12:44:00,
2013-10-11 07:50:00,54.3,52.0,29.92,ESE,123,4.0,4.0,92,0.00,,,0.00,Wunderground v.1.15,2013-10-11 12:50:00,
2013-10-11 07:56:00,54.6,52.3,29.92,SE,129,4.0,8.0,92,0.00,,,0.00,Wunderground v.1.15,2013-10-11 12:56:00,
2013-10-11 08:01:00,54.8,52.5,29.92,SSE,162,4.0,8.0,92,0.00,,,0.00,Wunderground v.1.15,2013-10-11 13:01:00,
2013-10-11 08:08:00,55.1,52.8,29.92,ESE,103,4.0,8.0,92,0.00,,,0.00,Wunderground v.1.15,2013-10-11 13:08:00,
2013-10-11 08:13:00,55.5,53.2,29.92,SSE,150,4.0,8.0,92,0.00,,,0.00,Wunderground v.1.15,2013-10-11 13:13:00,
2013-10-11 08:20:00,55.8,53.2,29.92,SE,126,4.0,8.0,91,0.00,,,0.00,Wunderground v.1.15,2013-10-11 13:20:00,
2013-10-11 08:25:00,56.1,53.5,29.92,ESE,113,5.0,8.0,91,0.00,,,0.00,Wunderground v.1.15,2013-10-11 13:25:00,
2013-10-11 08:32:00,56.5,53.9,29.91,SE,125,5.0,8.0,91,0.00,,,0.00,Wunderground v.1.15,2013-10-11 13:32:00,
2013-10-11 08:38:00,56.9,54.0,29.91,SE,131,5.0,9.0,90,0.00,,,0.00,Wunderground v.1.15,2013-10-11 13:38:00,
2013-10-11 08:44:00,57.2,54.3,29.91,East,96,5.0,8.0,90,0.00,,,0.00,Wunderground v.1.15,2013-10-11 13:44:00,
2013-10-11 08:50:00,57.6,54.7,29.91,SE,132,5.0,5.0,90,0.00,,,0.00,Wunderground v.1.15,2013-10-11 13:50:00,
2013-10-11 08:55:00,58.1,55.2,29.91,SE,129,4.0,8.0,90,0.00,,,0.00,Wunderground v.1.15,2013-10-11 13:55:00,
2013-10-11 09:02:00,58.5,55.3,29.91,East,95,4.0,5.0,89,0.00,,,0.00,Wunderground v.1.15,2013-10-11 14:02:00,
2013-10-11 09:08:00,58.9,55.4,29.91,SE,138,5.0,8.0,88,0.00,,,0.00,Wunderground v.1.15,2013-10-11 14:08:00,
2013-10-11 09:14:00,59.2,55.6,29.91,SE,126,5.0,8.0,88,0.00,,,0.00,Wunderground v.1.15,2013-10-11 14:14:00,
2013-10-11 09:20:00,59.4,55.8,29.91,ESE,117,5.0,8.0,88,0.00,,,0.00,Wunderground v.1.15,2013-10-11 14:20:00,
2013-10-11 09:25:00,59.9,56.3,29.90,ESE,123,5.0,8.0,88,0.00,,,0.00,Wunderground v.1.15,2013-10-11 14:25:00,
2013-10-11 09:32:00,60.3,56.4,29.90,SE,134,5.0,8.0,87,0.00,,,0.00,Wunderground v.1.15,2013-10-11 14:32:00,
2013-10-11 09:37:00,60.8,56.6,29.90,SE,126,6.0,8.0,86,0.00,,,0.00,Wunderground v.1.15,2013-10-11 14:37:00,
2013-10-11 09:44:00,61.3,56.8,29.90,ESE,114,6.0,8.0,85,0.00,,,0.00,Wunderground v.1.15,2013-10-11 14:44:00,
2013-10-11 09:50:00,61.9,57.3,29.89,SE,143,5.0,8.0,85,0.00,,,0.00,Wunderground v.1.15,2013-10-11 14:50:00,
2013-10-11 09:56:00,62.4,57.5,29.89,SE,137,6.0,8.0,84,0.00,,,0.00,Wunderground v.1.15,2013-10-11 14:56:00,
2013-10-11 10:02:00,62.9,57.7,29.89,ESE,113,6.0,8.0,83,0.00,,,0.00,Wunderground v.1.15,2013-10-11 15:02:00,
2013-10-11 10:08:00,63.3,57.7,29.88,SE,129,7.0,8.0,82,0.00,,,0.00,Wunderground v.1.15,2013-10-11 15:08:00,
2013-10-11 10:14:00,63.8,57.9,29.88,South,181,8.0,9.0,81,0.00,,,0.00,Wunderground v.1.15,2013-10-11 15:14:00,
2013-10-11 10:19:00,64.3,57.6,29.87,SE,129,8.0,8.0,79,0.00,,,0.00,Wunderground v.1.15,2013-10-11 15:19:00,
2013-10-11 10:26:00,64.9,58.2,29.87,SE,133,7.0,9.0,79,0.00,,,0.00,Wunderground v.1.15,2013-10-11 15:26:00,
2013-10-11 10:32:00,65.2,58.2,29.87,SE,130,7.0,8.0,78,0.00,,,0.00,Wunderground v.1.15,2013-10-11 15:32:00,
2013-10-11 10:38:00,65.4,58.0,29.86,ESE,116,8.0,13.0,77,0.00,,,0.00,Wunderground v.1.15,2013-10-11 15:38:00,
2013-10-11 10:44:00,65.9,58.5,29.86,SE,126,8.0,8.0,77,0.00,,,0.00,Wunderground v.1.15,2013-10-11 15:44:00,
2013-10-11 10:49:00,66.3,58.5,29.86,SE,129,7.0,7.0,76,0.00,,,0.00,Wunderground v.1.15,2013-10-11 15:49:00,
2013-10-11 10:56:00,66.8,59.0,29.85,ESE,102,8.0,10.0,76,0.00,,,0.00,Wunderground v.1.15,2013-10-11 15:56:00,
2013-10-11 11:01:00,67.4,59.2,29.85,SE,126,7.0,8.0,75,0.00,,,0.00,Wunderground v.1.15,2013-10-11 16:01:00,
2013-10-11 11:08:00,67.2,58.2,29.85,SSE,152,8.0,13.0,73,0.00,,,0.00,Wunderground v.1.15,2013-10-11 16:08:00,
2013-10-11 11:14:00,67.7,58.7,29.85,ESE,113,8.0,11.0,73,0.00,,,0.00,Wunderground v.1.15,2013-10-11 16:14:00,
2013-10-11 11:20:00,68.0,58.6,29.85,ESE,120,8.0,8.0,72,0.00,,,0.00,Wunderground v.1.15,2013-10-11 16:20:00,
2013-10-11 11:26:00,68.4,58.6,29.85,SE,126,8.0,9.0,71,0.00,,,0.00,Wunderground v.1.15,2013-10-11 16:26:00,
2013-10-11 11:31:00,68.7,58.9,29.84,SSE,159,9.0,9.0,71,0.00,,,0.00,Wunderground v.1.15,2013-10-11 16:31:00,
2013-10-11 11:38:00,69.1,58.9,29.83,SE,129,10.0,14.0,70,0.00,,,0.00,Wunderground v.1.15,2013-10-11 16:38:00,
2013-10-11 11:43:00,69.3,58.7,29.83,ESE,122,10.0,15.0,69,0.00,,,0.00,Wunderground v.1.15,2013-10-11 16:43:00,
2013-10-11 11:50:00,69.8,58.3,29.84,SE,137,9.0,9.0,67,0.00,,,0.00,Wunderground v.1.15,2013-10-11 16:50:00,
2013-10-11 11:55:00,70.0,59.0,29.83,ESE,113,9.0,9.0,68,0.00,,,0.00,Wunderground v.1.15,2013-10-11 16:55:00,
2013-10-11 12:02:00,70.5,58.2,29.83,ESE,110,9.0,15.0,65,0.00,,,0.00,Wunderground v.1.15,2013-10-11 17:02:00,
2013-10-11 12:08:00,70.7,58.4,29.83,SE,126,11.0,15.0,65,0.00,,,0.00,Wunderground v.1.15,2013-10-11 17:08:00,
2013-10-11 12:13:00,71.0,58.2,29.83,East,101,11.0,14.0,64,0.00,,,0.00,Wunderground v.1.15,2013-10-11 17:13:00,
2013-10-11 12:20:00,71.4,58.1,29.83,SE,143,9.0,10.0,63,0.00,,,0.00,Wunderground v.1.15,2013-10-11 17:20:00,
2013-10-11 12:25:00,71.6,58.3,29.83,SE,143,9.0,12.0,63,0.00,,,0.00,Wunderground v.1.15,2013-10-11 17:25:00,
2013-10-11 12:32:00,71.9,58.2,29.82,SE,139,10.0,13.0,62,0.00,,,0.00,Wunderground v.1.15,2013-10-11 17:32:00,
2013-10-11 12:38:00,72.2,57.5,29.82,SE,142,10.0,13.0,60,0.00,,,0.00,Wunderground v.1.15,2013-10-11 17:38:00,
2013-10-11 12:44:00,72.4,57.3,29.82,SE,127,10.0,12.0,59,0.00,,,0.00,Wunderground v.1.15,2013-10-11 17:44:00,
2013-10-11 12:50:00,72.5,57.8,29.81,SSE,158,11.0,11.0,60,0.00,,,0.00,Wunderground v.1.15,2013-10-11 17:50:00,
2013-10-11 12:55:00,72.8,57.2,29.82,ESE,113,11.0,13.0,58,0.00,,,0.00,Wunderground v.1.15,2013-10-11 17:55:00,
2013-10-11 13:02:00,73.1,57.0,29.81,SE,142,9.0,10.0,57,0.00,,,0.00,Wunderground v.1.15,2013-10-11 18:02:00,
2013-10-11 13:07:00,73.4,57.7,29.81,ESE,102,8.0,11.0,58,0.00,,,0.00,Wunderground v.1.15,2013-10-11 18:07:00,
2013-10-11 13:14:00,73.5,57.3,29.81,SSE,163,9.0,11.0,57,0.00,,,0.00,Wunderground v.1.15,2013-10-11 18:14:00,
2013-10-11 13:19:00,73.6,56.9,29.80,ESE,112,10.0,10.0,56,0.00,,,0.00,Wunderground v.1.15,2013-10-11 18:19:00,
2013-10-11 13:26:00,74.0,56.3,29.79,ESE,118,10.0,14.0,54,0.00,,,0.00,Wunderground v.1.15,2013-10-11 18:26:00,
2013-10-11 13:32:00,74.3,56.1,29.79,ESE,123,10.0,10.0,53,0.00,,,0.00,Wunderground v.1.15,2013-10-11 18:32:00,
2013-10-11 13:38:00,74.2,56.0,29.78,SE,135,9.0,13.0,53,0.00,,,0.00,Wunderground v.1.15,2013-10-11 18:38:00,
2013-10-11 13:44:00,74.3,55.5,29.79,SE,131,10.0,18.0,52,0.00,,,0.00,Wunderground v.1.15,2013-10-11 18:44:00,
2013-10-11 13:49:00,74.5,56.2,29.78,SSE,167,11.0,11.0,53,0.00,,,0.00,Wunderground v.1.15,2013-10-11 18:49:00,
2013-10-11 13:56:00,74.0,55.8,29.77,SSE,152,10.0,11.0,53,0.00,,,0.00,Wunderground v.1.15,2013-10-11 18:56:00,
2013-10-11 14:02:00,73.7,55.5,29.77,SSE,158,10.0,17.0,53,0.00,,,0.00,Wunderground v.1.15,2013-10-11 19:02:00,
2013-10-11 14:08:00,73.6,55.9,29.77,ESE,113,9.0,17.0,54,0.00,,,0.00,Wunderground v.1.15,2013-10-11 19:08:00,
2013-10-11 14:14:00,73.9,56.2,29.77,SSE,150,8.0,11.0,54,0.00,,,0.00,Wunderground v.1.15,2013-10-11 19:14:00,
2013-10-11 14:19:00,73.6,55.9,29.77,ESE,120,7.0,8.0,54,0.00,,,0.00,Wunderground v.1.15,2013-10-11 19:19:00,
2013-10-11 14:26:00,73.6,55.9,29.78,ESE,115,7.0,11.0,54,0.00,,,0.00,Wunderground v.1.15,2013-10-11 19:26:00,
2013-10-11 14:31:00,74.1,55.9,29.78,SSE,168,7.0,8.0,53,0.00,,,0.00,Wunderground v.1.15,2013-10-11 19:31:00,
2013-10-11 14:38:00,74.3,55.0,29.77,SSE,150,7.0,9.0,51,0.00,,,0.00,Wunderground v.1.15,2013-10-11 19:38:00,
2013-10-11 14:43:00,74.3,55.0,29.77,SE,130,9.0,11.0,51,0.00,,,0.00,Wunderground v.1.15,2013-10-11 19:43:00,
2013-10-11 14:50:00,75.1,54.6,29.77,SSE,160,10.0,10.0,49,0.00,,,0.00,Wunderground v.1.15,2013-10-11 19:50:00,
2013-10-11 14:56:00,75.7,54.0,29.76,South,182,10.0,10.0,47,0.00,,,0.00,Wunderground v.1.15,2013-10-11 19:56:00,
2013-10-11 15:02:00,75.9,54.2,29.75,SSE,158,9.0,11.0,47,0.00,,,0.00,Wunderground v.1.15,2013-10-11 20:02:00,
2013-10-11 15:08:00,75.7,53.4,29.76,SE,142,10.0,12.0,46,0.00,,,0.00,Wunderground v.1.15,2013-10-11 20:08:00,
2013-10-11 15:13:00,75.0,54.0,29.76,SSE,149,9.0,13.0,48,0.00,,,0.00,Wunderground v.1.15,2013-10-11 20:13:00,
2013-10-11 15:20:00,75.5,53.9,29.76,SSE,162,8.0,15.0,47,0.00,,,0.00,Wunderground v.1.15,2013-10-11 20:20:00,
2013-10-11 15:26:00,76.0,54.3,29.76,SE,140,8.0,15.0,47,0.00,,,0.00,Wunderground v.1.15,2013-10-11 20:26:00,
2013-10-11 15:32:00,76.3,54.6,29.76,SSE,158,8.0,11.0,47,0.00,,,0.00,Wunderground v.1.15,2013-10-11 20:32:00,
2013-10-11 15:38:00,76.1,54.4,29.76,SE,134,9.0,12.0,47,0.00,,,0.00,Wunderground v.1.15,2013-10-11 20:38:00,
2013-10-11 15:43:00,76.0,54.3,29.76,SE,145,10.0,16.0,47,0.00,,,0.00,Wunderground v.1.15,2013-10-11 20:43:00,
2013-10-11 15:50:00,75.9,54.2,29.76,ESE,123,11.0,11.0,47,0.00,,,0.00,Wunderground v.1.15,2013-10-11 20:50:00,
2013-10-11 15:55:00,75.9,54.2,29.76,SE,142,11.0,11.0,47,0.00,,,0.00,Wunderground v.1.15,2013-10-11 20:55:00,
2013-10-11 16:02:00,76.1,54.4,29.76,SSE,149,10.0,12.0,47,0.00,,,0.00,Wunderground v.1.15,2013-10-11 21:02:00,
2013-10-11 16:07:00,75.7,54.6,29.76,SE,129,9.0,12.0,48,0.00,,,0.00,Wunderground v.1.15,2013-10-11 21:07:00,
2013-10-11 16:14:00,75.2,54.7,29.76,SSE,166,9.0,9.0,49,0.00,,,0.00,Wunderground v.1.15,2013-10-11 21:14:00,
2013-10-11 16:20:00,74.8,54.9,29.76,SSE,163,7.0,9.0,50,0.00,,,0.00,Wunderground v.1.15,2013-10-11 21:20:00,
2013-10-11 16:26:00,74.8,54.9,29.76,SE,146,8.0,10.0,50,0.00,,,0.00,Wunderground v.1.15,2013-10-11 21:26:00,
2013-10-11 16:32:00,74.7,54.8,29.75,SSE,159,9.0,11.0,50,0.00,,,0.00,Wunderground v.1.15,2013-10-11 21:32:00,
2013-10-11 16:37:00,74.6,54.7,29.76,SE,143,9.0,11.0,50,0.00,,,0.00,Wunderground v.1.15,2013-10-11 21:37:00,
2013-10-11 16:44:00,74.7,54.8,29.75,SE,135,9.0,9.0,50,0.00,,,0.00,Wunderground v.1.15,2013-10-11 21:44:00,
2013-10-11 16:50:00,74.7,55.4,29.76,ESE,119,8.0,8.0,51,0.00,,,0.00,Wunderground v.1.15,2013-10-11 21:50:00,
2013-10-11 16:56:00,74.7,55.9,29.75,SE,130,7.0,15.0,52,0.00,,,0.00,Wunderground v.1.15,2013-10-11 21:56:00,
2013-10-11 17:02:00,74.5,55.7,29.76,South,184,8.0,8.0,52,0.00,,,0.00,Wunderground v.1.15,2013-10-11 22:02:00,
2013-10-11 17:07:00,74.4,55.1,29.76,SSE,163,8.0,8.0,51,0.00,,,0.00,Wunderground v.1.15,2013-10-11 22:07:00,
2013-10-11 17:14:00,74.4,55.6,29.76,SE,141,8.0,10.0,52,0.00,,,0.00,Wunderground v.1.15,2013-10-11 22:14:00,
2013-10-11 17:19:00,74.3,55.5,29.76,SSE,160,8.0,8.0,52,0.00,,,0.00,Wunderground v.1.15,2013-10-11 22:19:00,
2013-10-11 17:26:00,74.3,55.5,29.76,SE,142,7.0,8.0,52,0.00,,,0.00,Wunderground v.1.15,2013-10-11 22:26:00,
2013-10-11 17:32:00,74.2,55.4,29.76,SSE,147,7.0,8.0,52,0.00,,,0.00,Wunderground v.1.15,2013-10-11 22:32:00,
2013-10-11 17:38:00,74.1,55.9,29.76,SSE,149,7.0,11.0,53,0.00,,,0.00,Wunderground v.1.15,2013-10-11 22:38:00,
2013-10-11 17:44:00,74.0,55.8,29.76,SE,146,6.0,8.0,53,0.00,,,0.00,Wunderground v.1.15,2013-10-11 22:44:00,
2013-10-11 17:49:00,74.0,55.8,29.76,SE,129,5.0,8.0,53,0.00,,,0.00,Wunderground v.1.15,2013-10-11 22:49:00,
2013-10-11 17:56:00,73.9,55.7,29.76,SSE,149,6.0,8.0,53,0.00,,,0.00,Wunderground v.1.15,2013-10-11 22:56:00,
2013-10-11 18:01:00,73.8,56.1,29.76,ESE,117,7.0,11.0,54,0.00,,,0.00,Wunderground v.1.15,2013-10-11 23:01:00,
2013-10-11 18:08:00,73.7,55.5,29.76,SSE,149,7.0,11.0,53,0.00,,,0.00,Wunderground v.1.15,2013-10-11 23:08:00,
2013-10-11 18:14:00,73.5,55.8,29.76,SSE,152,6.0,8.0,54,0.00,,,0.00,Wunderground v.1.15,2013-10-11 23:14:00,
2013-10-11 18:20:00,73.5,55.8,29.76,SE,129,6.0,6.0,54,0.00,,,0.00,Wunderground v.1.15,2013-10-11 23:20:00,
2013-10-11 18:25:00,73.3,56.2,29.76,ESE,119,6.0,8.0,55,0.00,,,0.00,Wunderground v.1.15,2013-10-11 23:25:00,
2013-10-11 18:32:00,73.1,56.0,29.76,ESE,122,6.0,9.0,55,0.00,,,0.00,Wunderground v.1.15,2013-10-11 23:32:00,
2013-10-11 18:38:00,73.0,55.9,29.77,SE,128,6.0,9.0,55,0.00,,,0.00,Wunderground v.1.15,2013-10-11 23:38:00,
2013-10-11 18:44:00,72.8,56.2,29.77,SE,135,6.0,8.0,56,0.00,,,0.00,Wunderground v.1.15,2013-10-11 23:44:00,
2013-10-11 18:50:00,72.8,56.2,29.76,SE,143,6.0,8.0,56,0.00,,,0.00,Wunderground v.1.15,2013-10-11 23:50:00,
2013-10-11 18:56:00,72.7,56.1,29.77,SE,124,6.0,8.0,56,0.00,,,0.00,Wunderground v.1.15,2013-10-11 23:56:00,
2013-10-11 19:01:00,72.6,56.0,29.76,SE,133,6.0,8.0,56,0.00,,,0.00,Wunderground v.1.15,2013-10-12 00:01:00,
2013-10-11 19:08:00,72.5,56.4,29.77,ESE,118,6.0,8.0,57,0.00,,,0.00,Wunderground v.1.15,2013-10-12 00:08:00,
2013-10-11 19:13:00,72.3,56.2,29.77,SE,136,5.0,8.0,57,0.00,,,0.00,Wunderground v.1.15,2013-10-12 00:13:00,
2013-10-11 19:20:00,72.2,56.1,29.77,SSE,152,5.0,5.0,57,0.00,,,0.00,Wunderground v.1.15,2013-10-12 00:20:00,
2013-10-11 19:26:00,72.2,56.1,29.78,SE,139,6.0,8.0,57,0.00,,,0.00,Wunderground v.1.15,2013-10-12 00:26:00,
2013-10-11 19:32:00,72.1,56.5,29.78,SE,130,6.0,8.0,58,0.00,,,0.00,Wunderground v.1.15,2013-10-12 00:32:00,
2013-10-11 19:38:00,72.0,56.4,29.78,SSE,165,6.0,8.0,58,0.00,,,0.00,Wunderground v.1.15,2013-10-12 00:38:00,
2013-10-11 19:44:00,71.9,56.3,29.78,SE,128,6.0,8.0,58,0.00,,,0.00,Wunderground v.1.15,2013-10-12 00:44:00,
2013-10-11 19:50:00,71.7,56.1,29.78,ESE,115,5.0,8.0,58,0.00,,,0.00,Wunderground v.1.15,2013-10-12 00:50:00,
2013-10-11 19:56:00,71.6,56.5,29.78,SE,131,4.0,10.0,59,0.00,,,0.00,Wunderground v.1.15,2013-10-12 00:56:00,
2013-10-11 20:02:00,71.6,56.5,29.78,SSE,162,5.0,8.0,59,0.00,,,0.00,Wunderground v.1.15,2013-10-12 01:02:00,
2013-10-11 20:08:00,71.5,56.4,29.78,SE,126,5.0,8.0,59,0.00,,,0.00,Wunderground v.1.15,2013-10-12 01:08:00,
2013-10-11 20:13:00,71.4,56.3,29.78,ESE,119,5.0,8.0,59,0.00,,,0.00,Wunderground v.1.15,2013-10-12 01:13:00,
2013-10-11 20:20:00,71.2,56.1,29.78,SE,139,5.0,5.0,59,0.00,,,0.00,Wunderground v.1.15,2013-10-12 01:20:00,
2013-10-11 20:26:00,71.0,56.4,29.78,SE,139,5.0,8.0,60,0.00,,,0.00,Wunderground v.1.15,2013-10-12 01:26:00,
2013-10-11 20:31:00,70.9,56.3,29.78,SE,136,5.0,8.0,60,0.00,,,0.00,Wunderground v.1.15,2013-10-12 01:31:00,
2013-10-11 20:38:00,70.7,56.1,29.78,SE,146,5.0,8.0,60,0.00,,,0.00,Wunderground v.1.15,2013-10-12 01:38:00,
2013-10-11 20:43:00,70.7,56.1,29.78,South,181,5.0,8.0,60,0.00,,,0.00,Wunderground v.1.15,2013-10-12 01:43:00,
2013-10-11 20:50:00,70.7,56.6,29.78,SE,133,5.0,5.0,61,0.00,,,0.00,Wunderground v.1.15,2013-10-12 01:50:00,
2013-10-11 20:56:00,70.5,56.4,29.79,SE,136,4.0,8.0,61,0.00,,,0.00,Wunderground v.1.15,2013-10-12 01:56:00,
2013-10-11 21:02:00,70.4,56.3,29.79,SE,139,5.0,8.0,61,0.00,,,0.00,Wunderground v.1.15,2013-10-12 02:02:00,
2013-10-11 21:08:00,70.3,56.2,29.79,SE,138,4.0,8.0,61,0.00,,,0.00,Wunderground v.1.15,2013-10-12 02:08:00,
2013-10-11 21:14:00,70.1,56.0,29.79,SSE,160,4.0,8.0,61,0.00,,,0.00,Wunderground v.1.15,2013-10-12 02:14:00,
2013-10-11 21:20:00,70.0,56.4,29.79,SSE,152,4.0,4.0,62,0.00,,,0.00,Wunderground v.1.15,2013-10-12 02:20:00,
2013-10-11 21:25:00,69.7,56.1,29.79,SE,139,4.0,8.0,62,0.00,,,0.00,Wunderground v.1.15,2013-10-12 02:25:00,
2013-10-11 21:32:00,69.5,56.3,29.78,SE,137,4.0,8.0,63,0.00,,,0.00,Wunderground v.1.15,2013-10-12 02:32:00,
2013-10-11 21:38:00,69.4,56.3,29.78,SE,126,4.0,8.0,63,0.00,,,0.00,Wunderground v.1.15,2013-10-12 02:38:00,
2013-10-11 21:44:00,69.3,56.2,29.78,SE,143,4.0,8.0,63,0.00,,,0.00,Wunderground v.1.15,2013-10-12 02:44:00,
2013-10-11 21:49:00,69.1,56.0,29.78,SE,139,4.0,8.0,63,0.00,,,0.00,Wunderground v.1.15,2013-10-12 02:49:00,
2013-10-11 21:56:00,69.1,56.0,29.78,SE,146,4.0,8.0,63,0.00,,,0.00,Wunderground v.1.15,2013-10-12 02:56:00,
2013-10-11 22:01:00,69.1,56.0,29.78,SE,136,4.0,8.0,63,0.00,,,0.00,Wunderground v.1.15,2013-10-12 03:01:00,
2013-10-11 22:08:00,68.9,55.8,29.78,SE,135,4.0,8.0,63,0.00,,,0.00,Wunderground v.1.15,2013-10-12 03:08:00,
2013-10-11 22:13:00,68.7,56.0,29.79,SE,144,4.0,8.0,64,0.00,,,0.00,Wunderground v.1.15,2013-10-12 03:13:00,
2013-10-11 22:20:00,68.6,55.9,29.79,SE,145,4.0,4.0,64,0.00,,,0.00,Wunderground v.1.15,2013-10-12 03:20:00,
2013-10-11 22:26:00,68.4,55.7,29.79,SE,126,4.0,8.0,64,0.00,,,0.00,Wunderground v.1.15,2013-10-12 03:26:00,
2013-10-11 22:32:00,68.3,56.1,29.78,SE,146,4.0,8.0,65,0.00,,,0.00,Wunderground v.1.15,2013-10-12 03:32:00,
2013-10-11 22:37:00,68.0,55.8,29.79,SSE,149,4.0,8.0,65,0.00,,,0.00,Wunderground v.1.15,2013-10-12 03:37:00,
2013-10-11 22:44:00,67.9,56.1,29.79,SE,139,4.0,8.0,66,0.00,,,0.00,Wunderground v.1.15,2013-10-12 03:44:00,
2013-10-11 22:49:00,67.7,55.9,29.79,SSE,158,4.0,4.0,66,0.00,,,0.00,Wunderground v.1.15,2013-10-12 03:49:00,
2013-10-11 22:56:00,67.5,55.7,29.79,SE,143,4.0,8.0,66,0.00,,,0.00,Wunderground v.1.15,2013-10-12 03:56:00,
2013-10-11 23:01:00,67.3,56.0,29.79,SE,131,4.0,8.0,67,0.00,,,0.00,Wunderground v.1.15,2013-10-12 04:01:00,
2013-10-11 23:03:00,67.2,55.9,29.79,SSE,155,4.0,8.0,67,0.00,,,0.00,Wunderground v.1.15,2013-10-12 04:03:00,
2013-10-11 23:05:00,67.1,55.8,29.79,SE,146,4.0,8.0,67,0.00,,,0.00,Wunderground v.1.15,2013-10-12 04:05:00,
2013-10-11 23:12:00,66.9,56.0,29.79,SSE,158,4.0,8.0,68,0.00,,,0.00,Wunderground v.1.15,2013-10-12 04:12:00,
2013-10-11 23:17:00,66.7,55.8,29.79,SE,136,4.0,8.0,68,0.00,,,0.00,Wunderground v.1.15,2013-10-12 04:17:00,
2013-10-11 23:20:00,66.7,55.8,29.79,South,174,4.0,8.0,68,0.00,,,0.00,Wunderground v.1.15,2013-10-12 04:20:00,
2013-10-11 23:26:00,66.5,56.0,29.79,SE,141,4.0,8.0,69,0.00,,,0.00,Wunderground v.1.15,2013-10-12 04:26:00,
2013-10-11 23:31:00,66.4,55.9,29.79,SSE,159,4.0,8.0,69,0.00,,,0.00,Wunderground v.1.15,2013-10-12 04:31:00,
2013-10-11 23:38:00,66.5,56.0,29.79,SSE,149,4.0,8.0,69,0.00,,,0.00,Wunderground v.1.15,2013-10-12 04:38:00,
2013-10-11 23:44:00,66.6,56.1,29.79,ESE,118,4.0,8.0,69,0.00,,,0.00,Wunderground v.1.15,2013-10-12 04:44:00,
2013-10-11 23:50:00,66.4,55.9,29.79,SE,139,4.0,8.0,69,0.00,,,0.00,Wunderground v.1.15,2013-10-12 04:50:00,
2013-10-11 23:56:00,66.3,55.8,29.79,SE,146,4.0,8.0,69,0.00,,,0.00,Wunderground v.1.15,2013-10-12 04:56:00,